COSMOS 1275 DEB, 42124

Orbit data source: Space-Track

COSMOS 1275 DEB, 42124 is space debris in LEO originally from a launch on Thu, 04 Jun 1981 UTC launched from the Plesetsk Missile And Space Complex (PKMTR). Debris objects in space refer to the collection of defunct objects orbiting the Earth. Examples of debris include non-operational satellites, rocket bodies, and fragments generated from explosions, collisions, or faulty payload assembly.

Loading next visibility...
Identifier
42124, 1981-053QL
Orbit
LEO
Country
Flag of CISCIS
Related business
Manufacturer
Unknown
Mission
Spacecraft
Bus & Motor
Unknown
Mass
Unknown
Launch date (UTC)
1981-06-04 (44 years ago)
Launch vehicle
Unknown
Launch site
Plesetsk Missile And Space Complex (PKMTR)
Object type
Payload
Rocket body
Debris
Shape & HBR
Unknown shape, 0.1 m
Radar Cross Section
Small (<0.1 m²)

Expand to show TLE details & history
Last TLE update: 21 hours ago

TLE from 21 hours ago
0 COSMOS 1275 DEB
1 42124U 81053QL  25286.58817514  .00000872  00000-0  96794-3 0  9997
2 42124  83.0102 149.8777 0121432 226.6951 164.2877 13.67519450592255
Epoch: 2025-10-13T14:06Z
TLE epoch observation values (Epoch: 2025-10-13T14:06:58.332Z)
Latitude
31.14793°
Longitude
-80.02643°
Altitude
1,098.869 km
Speed
7.263 km/s
True Right ascension
10h 16m 25s
True Declination
31° 00' 10"
Sunlit
Object was in daylight at epoch
Visualization orbit readout
Latitude
Unknown
Longitude
Unknown
Altitude
Unknown
Speed
Unknown
Apparent Right ascension
Unknown
Apparent Declination
Unknown
Sunlit
N/A
Visualization observer readout
Local Sidereal Time
05:42:59
Azimuth
Unknown
Elevation
Unknown
Doppler factor
Unknown
Orbital elements
Apogee altitude
1,095.309 km
Perigee altitude
915.983 km
Semi-major axis
7,383.783 km
Eccentricity
0.01214
Inclination
83.0102°
RAAN
149.8777°
Arg. of periapsis
226.6951°
True anomaly
164.6591°
Mean anomaly
164.2877°
Eccentric anomaly
164.47394°
Mean motion
3.42078 °/min
Orbital period
105.24 mins
BSTAR
0.00096794
Loading maneuver chart data...
Computing Atmospheric mass density...

Documentation

Showing up to 5 results
|